Location: Aufkirchen
(47.9603°N, 11.3653°E)
Time: 10:29:24
(UTC+01:00)

Tiros 1 - Pass Details

Date: 29 November 2020
Orbit: 630 x 663 km, 48.4° (Epoch: 21 January)

Event Time Altitude Azimuth Distance (km) Brightness Sun altitude
Rises 19:35:07 0° 283° (WNW) 2,988 11.7 -31.1°
Reaches altitude 10° 19:37:29 10° 281° (W) 2,070 10.6 -31.5°
Enters shadow 19:40:15 35° 274° (W) 1,068 8.7 -32.0°
Maximum altitude 19:42:14 73° 198° (SSW) 685 - -32.3°
Drops below altitude 10° 19:46:57 10° 114° (ESE) 2,045 - -33.1°
Sets 19:49:16 0° 112° (ESE) 2,948 - -33.5°
